Regional Weather Roundup
Issued by NWS

Home | Current Version | Previous Version | Graphics & Text | Print | Product List | Glossary On
Versions: 1 2 3 4 5 6 7 8 9 10 11 12 13 14 15 16 17 18 19 20 21 22 23 24 25 26 27 28 29 30 31 32 33 34 35 36 37 38 39 40 41 42 43 44 45 46 47 48 49 50
000
ASUS43 KOAX 281902
RWRNE

WEATHER ROUNDUP FOR NEBRASKA
NATIONAL WEATHER SERVICE OMAHA NE
200 PM CDT SUN MAY 28 2017

NOTES: SATELLITE DATA IS BEING USED TO AUGMENT CLOUD COVER ABOVE
       12000 FEET.
       "FAIR" INDICATES FEW OR NO CLOUDS BELOW 12,000 FEET WITH NO
       SIGNIFICANT WEATHER AND/OR OBSTRUCTIONS TO VISIBILITY.

  * THESE STATIONS DO NOT REPORT WEATHER SUCH AS RAIN...SNOW OR FOG.

NEZ001>004-019>022-054>056-282000-
NEBRASKA PANHANDLE

CITY           SKY/WX    TMP DP  RH WIND       PRES   REMARKS
SCOTTSBLUFF    PTSUNNY   71  41  33 NW16      30.16F
ALLIANCE       MOSUNNY   70  41  34 NW18G26   30.13F
CHADRON        PTSUNNY   68  48  48 NE7       30.10F
GORDON         MOCLDY    68  40  36 NW10      30.11F
KIMBALL        MOSUNNY   68  35  29 W13G18    30.22S
SIDNEY         MOSUNNY   70  42  36 NW16      30.18F
$$

NEZ057>060-069>072-079>082-282000-
SOUTHWEST NEBRASKA

CITY           SKY/WX    TMP DP  RH WIND       PRES   REMARKS
NORTH PLATTE   MOSUNNY   77  46  33 NW16G28   30.06F
IMPERIAL       MOSUNNY   77  36  22 NW17G26   30.12F
LEXINGTON      MOSUNNY   76  44  32 NW21      30.04S
MCCOOK         MOSUNNY   80  40  23 NW16G22   30.08F
OGALLALA       PTSUNNY   71  41  33 NW10G20   30.12R
$$

NEZ005>010-023>029-035>040-094-282000-
NORTH CENTRAL NEBRASKA

CITY           SKY/WX    TMP DP  RH WIND       PRES   REMARKS
VALENTINE      SUNNY     74  35  24 NW15G24   30.04F
AINSWORTH      SUNNY     72  41  33 NW13G30   30.04S
BROKEN BOW     PTSUNNY   77  42  28 NW16G26   30.03S
O`NEILL        SUNNY     73  36  26 NW18G31   30.00S
ORD            MOSUNNY   76  44  32 NW18G32   29.99S
THEDFORD       CLOUDY    73  44  34 NW21G30   30.07S
$$

NEZ041-046>049-061>064-073>077-083>087-282000-
SOUTH CENTRAL NEBRASKA

CITY           SKY/WX    TMP DP  RH WIND       PRES   REMARKS
GRAND ISLAND   MOSUNNY   81  43  26 NW25G33   29.99S
AURORA         PTSUNNY   81  37  21 NW21G32   29.98F
HASTINGS       PTSUNNY   80  39  23 NW21G28   30.01F
HEBRON         MOSUNNY   79  40  25 NW8G17    29.99F
HOLDREGE       PTSUNNY   77  38  24 NW13G24   30.04S
KEARNEY *      PTSUNNY   79  39  24 NW14G20   30.02F
$$

NEZ011>018-030>034-042>045-282000-
NORTHEAST NEBRASKA

CITY           SKY/WX    TMP DP  RH WIND       PRES   REMARKS
NORFOLK        SUNNY     75  41  29 NW21G31   29.94R
ALBION         SUNNY     75  45  34 NW23G29   29.98R
BLAIR          MOSUNNY   80  42  25 W10G28    29.89F
FREMONT        MOSUNNY   81  43  26 W21G30    29.90F
TEKAMAH        PTSUNNY   82  41  23 NW21G30   29.87S
WAYNE          MOSUNNY   76  42  29 NW22G32   29.92S
$$

NEZ050>053-065>068-078-088>093-282000-
SOUTHEAST NEBRASKA

CITY           SKY/WX    TMP DP  RH WIND       PRES   REMARKS
LINCOLN        PTSUNNY   81  42  25 NW10      29.93F
OMAHA EPPLEY   MOSUNNY   78  42  27 W14       29.88F
BEATRICE       MOSUNNY   79  48  34 W9G18     29.96F
FALLS CITY     SUNNY     78  49  35 NW10      29.94F
NEBRASKA CITY  MOSUNNY   78  42  27 W14       29.94S
PLATTSMOUTH    PTSUNNY   79  44  29 W15G21    29.91F
$$

NEZ044-045-051>053-067-282000-
OMAHA AREA

CITY           SKY/WX    TMP DP  RH WIND       PRES   REMARKS
OMAHA EPPLEY   MOSUNNY   78  42  27 W14       29.88F
BLAIR          MOSUNNY   80  42  25 W10G28    29.89F
FREMONT        MOSUNNY   81  43  26 W21G30    29.90F
MILLARD        PTSUNNY   79  47  32 W10G17    29.90F
OFFUTT AFB     MOSUNNY   80  47  30 W15G22    29.88F
PLATTSMOUTH    PTSUNNY   79  44  29 W15G21    29.91F
WAHOO          MOCLDY    81  38  22 W18G24    29.90F
$$




USA.gov is the U.S. government's official web portal to all federal, state and local government web resources and services.